******************************************************************************* JPL/HORIZONS 7P/Pons-Winnecke 2025-Dec-12 21:10:39 Rec #:90000168 (+COV) Soln.date: 2025-Dec-03_11:00:03 # obs: 1682 (1921-2025) IAU76/J2000 helio. ecliptic osc. elements (au, days, deg., period=Julian yrs): EPOCH= 2457145.5 ! 2015-May-03.0000000 (TDB) RMSW= n.a. EC= .6375739907722755 QR= 1.239195930038896 TP= 2457053.0274808016 OM= 93.41546687143369 W= 172.5054923572374 IN= 22.33460615450999 A= 3.419169426276654 MA= 14.41570315637348 ADIST= 5.599142922514411 PER= 6.3225043151028 N= .155891753 ANGMOM= .024504841 DAN= 5.51624 DDN= 1.24333 L= 266.4774961 B= 2.8410743 MOID= .225833 TP= 2015-Jan-30.5274808016 Comet physical (GM= km^3/s^2; RAD= km): GM= n.a. RAD= 2.6 M1= 16. M2= n.a. k1= 4.5 k2= n.a. PHCOF= n.a. Comet non-gravitational force model (AMRAT=m^2/kg;A1-A3=au/d^2;DT=days;R0=au): AMRAT= 0. DT= 150.2288 A1= 6.371585652232E-11 A2= -5.184314213693E-12 A3= -1.016586832702E-10 Standard model: ALN= .1112620426 NK= 4.6142 NM= 2.15 NN= 5.093 R0= 2.808 COMET comments 1: soln ref.= JPL#31, data arc: 1921-04-28 to 2025-11-26 2: k1=4.5; ******************************************************************************* ******************************************************************************* Ephemeris / WWW_USER Fri Dec 12 21:10:39 2025 Pasadena, USA / Horizons ******************************************************************************* Target body name: 7P/Pons-Winnecke {source: JPL#31} Center body name: Earth (399) {source: DE441} Center-site name: GEOCENTRIC ******************************************************************************* Start time : A.D. 2062-Jun-12 18:25:00.0000 UT Stop time : A.D. 2062-Jun-13 00:00:00.0000 UT Step-size : 1440 minutes ******************************************************************************* Target pole/equ : undefined Target radii : 2.6 km Center geodetic : 0.0, 0.0, -6378.137 {E-lon(deg),Lat(deg),Alt(km)} Center cylindric: 0.0, 0.0, 0.0 {E-lon(deg),Dxy(km),Dz(km)} Center pole/equ : ITRF93 {East-longitude positive} Center radii : 6378.137, 6378.137, 6356.752 km {Equator_a, b, pole_c} Target primary : Sun Vis. interferer : MOON (R_eq= 1737.400) km {source: DE441} Rel. light bend : Sun {source: DE441} Rel. lght bnd GM: 1.3271E+11 km^3/s^2 Small-body perts: Yes {source: SB441-N16} Atmos refraction: NO (AIRLESS) RA format : HMS Time format : CAL Calendar mode : Mixed Julian/Gregorian EOP file : eop.251212.p260310 EOP coverage : DATA-BASED 1962-JAN-20 TO 2025-DEC-12. PREDICTS-> 2026-MAR-09 Units conversion: 1 au= 149597870.700 km, c= 299792.458 km/s, 1 day= 86400.0 s Table cut-offs 1: Elevation (-90.0deg=NO ),Airmass (>38.000=NO), Daylight (NO ) Table cut-offs 2: Solar elongation ( 0.0,180.0=NO ),Local Hour Angle( 0.0=NO ) Table cut-offs 3: RA/DEC angular rate ( 0.0=NO ) ******************************************************************************* Initial IAU76/J2000 heliocentric ecliptic osculating elements (au, days, deg.): EPOCH= 2457145.5 ! 2015-May-03.0000000 (TDB) RMSW= n.a. EC= .6375739907722755 QR= 1.239195930038896 TP= 2457053.0274808016 OM= 93.41546687143369 W= 172.5054923572374 IN= 22.33460615450999 Equivalent ICRF heliocentric cartesian coordinates (au, au/d): X= 1.384942630394724E+00 Y=-4.312926615450443E-01 Z=-7.871356502069721E-01 VX= 1.181406124927334E-02 VY= 1.149611977671485E-02 VZ=-5.719060068315532E-04 Comet physical (GM= km^3/s^2; RAD= km): GM= n.a. RAD= 2.6 M1= 16. M2= n.a. k1= 4.5 k2= n.a. PHCOF= n.a. Comet non-gravitational force model (AMRAT=m^2/kg;A1-A3=au/d^2;DT=days;R0=au): AMRAT= 0. DT= 150.2288 A1= 6.371585652232E-11 A2= -5.184314213693E-12 A3= -1.016586832702E-10 Standard model: ALN= .1112620426 NK= 4.6142 NM= 2.15 NN= 5.093 R0= 2.808 ******************************************************************************************************************************** Date__(UT)__HR:MN r rdot delta deldot VmagSn VmagOb RNG_3sigma RNGRT_3sig ******************************************************************************************************************************** $$SOE 2062-Jun-12 18:25 0.849868345369 -2.3243999 0.16764106541118 -0.0014156 42.4773357 16.2701140 311.6534 0.0020206 $$EOE ******************************************************************************************************************************** Column meaning: TIME Times PRIOR to 1962 are UT1, a mean-solar time closely related to the prior but now-deprecated GMT. Times AFTER 1962 are in UTC, the current civil or "wall-clock" time-scale. UTC is kept within 0.9 seconds of UT1 using integer leap-seconds for 1972 and later years. Conversion from the internal Barycentric Dynamical Time (TDB) of solar system dynamics to the non-uniform civil UT time-scale requested for output has not been determined for UTC times after the next July or January 1st. Therefore, the last known leap-second is used as a constant over future intervals. Time tags refer to the UT time-scale conversion from TDB on Earth regardless of observer location within the solar system, although clock rates may differ due to the local gravity field and no analog to "UT" may be defined for that location. Any 'b' symbol in the 1st-column denotes a B.C. date. First-column blank (" ") denotes an A.D. date. CALENDAR SYSTEM Mixed calendar mode was active such that calendar dates after AD 1582-Oct-15 (if any) are in the modern Gregorian system. Dates prior to 1582-Oct-5 (if any) are in the Julian calendar system, which is automatically extended for dates prior to its adoption on 45-Jan-1 BC. The Julian calendar is useful for matching historical dates. The Gregorian calendar more accurately corresponds to the Earth's orbital motion and seasons. A "Gregorian-only" calendar mode is available if such physical events are the primary interest. NOTE: "n.a." in output means quantity "not available" at the print-time. STATISTICAL UNCERTAINTIES Output includes formal +/- 3 standard-deviation statistical orbit uncertainty quantities. There is a 99.7% (1-D) or 98.9% (2-D) chance the actual value is within given bounds. These statistical calculations assume observational data errors are random. If there are systematic biases (such as timing, reduction or star-catalog errors), results can be optimistic. Because the epoch covariance is mapped using linearized variational partial derivatives, results can also be optimistic for times far from the solution epoch, particularly for objects having close planetary encounters. 'r rdot' = The Sun's apparent range ("r", light-time aberrated) and range-rate ("rdot") relative to the target center, as seen by the observer. A positive "rdot" means the target center was moving away from the Sun, negative means moving toward the Sun. Units: AU and KM/S 'delta deldot' = Apparent range ("delta", light-time aberrated) and range-rate ("delta-dot") of the target center relative to the observer. A positive "deldot" means the target center is moving away from the observer, negative indicates movement toward the observer. Units: AU and KM/S 'VmagSn VmagOb' = Magnitude of target centers' velocity with respect to the Sun ("VmagSn") and the observer ("VmagOb") at the time light left the target center to be observed (print time minus down-leg light-time). These are absolute values of the velocity vectors (total speeds) and do NOT indicate direction of motion. Units: KM/S 'RNG_3sigma RNGRT_3sig' = Range and range rate (radial velocity) formal 3-standard-deviation uncertainties. Units: KM, KM/S Computations by ... Solar System Dynamics Group, Horizons On-Line Ephemeris System 4800 Oak Grove Drive, Jet Propulsion Laboratory Pasadena, CA 91109 USA General site: https://ssd.jpl.nasa.gov/ Mailing list: https://ssd.jpl.nasa.gov/email_list.html System news : https://ssd.jpl.nasa.gov/horizons/news.html User Guide : https://ssd.jpl.nasa.gov/horizons/manual.html Connect : browser https://ssd.jpl.nasa.gov/horizons/app.html#/x API https://ssd-api.jpl.nasa.gov/doc/horizons.html command-line telnet ssd.jpl.nasa.gov 6775 e-mail/batch https://ssd.jpl.nasa.gov/ftp/ssd/horizons_batch.txt scripts https://ssd.jpl.nasa.gov/ftp/ssd/SCRIPTS Author : Jon.D.Giorgini@jpl.nasa.gov ******************************************************************************************************************************** !$$SOF COMMAND = 'DES=7P;CAP' QUANTITIES = '19,20,22,39' START_TIME = '2062-Jun-12 18:25' STEP_SIZE = '1 day' STOP_TIME = '2062-Jun-13'